TimeCDT,TemperatureF,Dew PointF,Humidity,Sea Level PressureIn,VisibilityMPH,Wind Direction,Wind SpeedMPH,Gust SpeedMPH,PrecipitationIn,Events,Conditions,WindDirDegrees,DateUTC
12:15 AM,55.9,44.8,66,30.12,10.0,North,6.9,-,N/A,,Overcast,10,2012-10-10 05:15:00
12:35 AM,54.5,44.1,68,30.12,10.0,North,5.8,-,N/A,,Mostly Cloudy,360,2012-10-10 05:35:00
12:55 AM,54.0,44.8,71,30.13,10.0,North,6.9,-,N/A,,Scattered Clouds,10,2012-10-10 05:55:00
1:15 AM,52.0,43.2,72,30.15,10.0,North,8.1,-,N/A,,Clear,10,2012-10-10 06:15:00
1:35 AM,50.9,41.2,69,30.15,10.0,NNE,8.1,-,N/A,,Clear,20,2012-10-10 06:35:00
1:55 AM,49.3,39.9,70,30.17,10.0,North,5.8,-,N/A,,Clear,10,2012-10-10 06:55:00
2:15 AM,49.1,40.5,72,30.18,10.0,North,3.5,-,N/A,,Clear,360,2012-10-10 07:15:00
2:35 AM,49.1,41.5,75,30.18,10.0,North,3.5,-,N/A,,Clear,10,2012-10-10 07:35:00
2:55 AM,47.5,41.4,79,30.18,10.0,Calm,Calm,-,N/A,,Clear,0,2012-10-10 07:55:00
3:15 AM,43.3,41.2,92,30.18,10.0,Calm,Calm,-,N/A,,Clear,0,2012-10-10 08:15:00
3:35 AM,40.8,40.6,99,30.17,10.0,NE,3.5,-,N/A,,Clear,50,2012-10-10 08:35:00
3:55 AM,39.6,39.9,100,30.18,10.0,Calm,Calm,-,N/A,,Clear,0,2012-10-10 08:55:00
4:15 AM,38.8,39.2,100,30.18,10.0,Calm,Calm,-,N/A,,Clear,0,2012-10-10 09:15:00
4:35 AM,-9999,-9999,N/A,30.18,10.0,North,3.5,-,N/A,,Clear,360,2012-10-10 09:35:00
4:55 AM,36.5,36.5,100,30.19,10.0,North,3.5,-,N/A,,Clear,360,2012-10-10 09:55:00
5:15 AM,-9999,-9999,N/A,30.19,10.0,North,3.5,-,N/A,,Clear,10,2012-10-10 10:15:00
5:35 AM,39.7,39.9,100,30.20,10.0,Calm,Calm,-,N/A,,Clear,0,2012-10-10 10:35:00
5:55 AM,39.6,39.7,100,30.22,10.0,Calm,Calm,-,N/A,,Clear,0,2012-10-10 10:55:00
6:15 AM,37.0,37.2,100,30.22,10.0,Calm,Calm,-,N/A,,Clear,0,2012-10-10 11:15:00
6:35 AM,36.5,36.5,100,30.23,10.0,Calm,Calm,-,N/A,,Clear,0,2012-10-10 11:35:00
6:55 AM,35.8,36.0,100,30.24,10.0,Calm,Calm,-,N/A,,Clear,0,2012-10-10 11:55:00
7:15 AM,34.3,-9999,N/A,30.25,10.0,Calm,Calm,-,N/A,,Clear,0,2012-10-10 12:15:00
7:35 AM,34.9,-9999,N/A,30.25,10.0,Calm,Calm,-,N/A,,Clear,0,2012-10-10 12:35:00
7:55 AM,35.6,-9999,N/A,30.26,10.0,Calm,Calm,-,N/A,,Clear,0,2012-10-10 12:55:00
8:15 AM,36.5,-9999,N/A,30.27,10.0,Calm,Calm,-,N/A,,Clear,0,2012-10-10 13:15:00
8:35 AM,39.2,-9999,N/A,30.27,10.0,Calm,Calm,-,N/A,,Clear,0,2012-10-10 13:35:00
8:55 AM,42.3,40.5,93,30.28,10.0,Calm,Calm,-,N/A,,Clear,0,2012-10-10 13:55:00
9:15 AM,45.7,38.7,76,30.28,10.0,East,4.6,-,N/A,,Clear,80,2012-10-10 14:15:00
9:35 AM,48.6,36.5,63,30.29,10.0,East,4.6,-,N/A,,Clear,90,2012-10-10 14:35:00
9:55 AM,49.5,34.7,57,30.29,10.0,East,4.6,-,N/A,,Clear,90,2012-10-10 14:55:00
10:15 AM,51.3,34.9,54,30.29,10.0,East,3.5,-,N/A,,Clear,90,2012-10-10 15:15:00
10:35 AM,53.4,35.4,51,30.29,10.0,ESE,5.8,-,N/A,,Clear,120,2012-10-10 15:35:00
10:55 AM,54.0,34.3,47,30.29,10.0,ESE,4.6,-,N/A,,Clear,120,2012-10-10 15:55:00
11:15 AM,54.3,33.3,45,30.30,10.0,East,5.8,-,N/A,,Clear,80,2012-10-10 16:15:00
11:35 AM,55.8,32.9,42,30.30,10.0,NE,5.8,-,N/A,,Clear,40,2012-10-10 16:35:00
11:55 AM,56.5,32.2,40,30.29,10.0,NE,5.8,-,N/A,,Clear,50,2012-10-10 16:55:00
12:15 PM,56.5,31.6,39,30.29,10.0,Calm,Calm,-,N/A,,Clear,0,2012-10-10 17:15:00
12:35 PM,57.7,31.5,37,30.28,10.0,ENE,3.5,-,N/A,,Clear,70,2012-10-10 17:35:00
12:55 PM,59.0,31.8,36,30.27,10.0,ENE,4.6,-,N/A,,Clear,60,2012-10-10 17:55:00
1:15 PM,59.0,30.7,34,30.27,10.0,NNE,5.8,-,N/A,,Clear,30,2012-10-10 18:15:00
1:35 PM,59.0,30.6,34,30.26,10.0,Calm,Calm,-,N/A,,Clear,0,2012-10-10 18:35:00
1:55 PM,59.0,30.6,34,30.24,10.0,ENE,3.5,-,N/A,,Clear,60,2012-10-10 18:55:00
2:15 PM,59.7,31.3,34,30.23,10.0,Calm,Calm,-,N/A,,Clear,0,2012-10-10 19:15:00
2:35 PM,60.1,31.6,34,30.23,10.0,NE,9.2,-,N/A,,Clear,50,2012-10-10 19:35:00
2:55 PM,60.3,31.5,34,30.22,10.0,ENE,4.6,-,N/A,,Clear,60,2012-10-10 19:55:00
3:15 PM,60.3,31.3,34,30.22,10.0,Calm,Calm,-,N/A,,Clear,0,2012-10-10 20:15:00
3:35 PM,60.6,31.3,33,30.21,10.0,SSE,4.6,-,N/A,,Clear,150,2012-10-10 20:35:00
3:55 PM,60.8,31.8,34,30.20,10.0,ESE,5.8,-,N/A,,Clear,120,2012-10-10 20:55:00
4:15 PM,61.2,31.6,33,30.20,10.0,East,6.9,-,N/A,,Clear,90,2012-10-10 21:15:00
4:35 PM,61.5,31.5,32,30.19,10.0,ESE,4.6,-,N/A,,Clear,110,2012-10-10 21:35:00
4:55 PM,60.8,31.5,33,30.19,10.0,East,5.8,-,N/A,,Clear,80,2012-10-10 21:55:00
5:15 PM,60.4,31.3,33,30.18,10.0,East,3.5,-,N/A,,Clear,80,2012-10-10 22:15:00
5:35 PM,60.3,31.3,34,30.18,10.0,ESE,3.5,-,N/A,,Clear,120,2012-10-10 22:35:00
5:55 PM,60.3,31.8,34,30.18,10.0,ESE,4.6,-,N/A,,Clear,110,2012-10-10 22:55:00
6:15 PM,59.2,32.0,36,30.17,10.0,ESE,3.5,-,N/A,,Clear,110,2012-10-10 23:15:00
6:35 PM,58.3,32.5,38,30.17,10.0,ESE,4.6,-,N/A,,Clear,110,2012-10-10 23:35:00
6:55 PM,55.9,33.8,43,30.17,10.0,SE,3.5,-,N/A,,Clear,130,2012-10-10 23:55:00
7:15 PM,53.4,36.3,52,30.17,10.0,ESE,3.5,-,N/A,,Clear,120,2012-10-11 00:15:00
7:35 PM,50.7,36.7,59,30.17,10.0,Calm,Calm,-,N/A,,Clear,0,2012-10-11 00:35:00
7:55 PM,49.5,36.3,61,30.17,10.0,Calm,Calm,-,N/A,,Clear,0,2012-10-11 00:55:00
8:15 PM,49.1,37.8,65,30.17,10.0,ESE,3.5,-,N/A,,Clear,110,2012-10-11 01:15:00
8:35 PM,49.1,37.0,63,30.17,10.0,ESE,3.5,-,N/A,,Clear,120,2012-10-11 01:35:00
8:55 PM,49.1,37.6,64,30.17,10.0,ESE,3.5,-,N/A,,Clear,110,2012-10-11 01:55:00
9:15 PM,48.4,37.2,65,30.16,7.0,ESE,3.5,-,N/A,,Clear,110,2012-10-11 02:15:00
9:35 PM,49.1,36.5,62,30.16,10.0,SE,3.5,-,N/A,,Clear,130,2012-10-11 02:35:00
9:55 PM,46.9,35.8,65,30.17,10.0,Calm,Calm,-,N/A,,Clear,0,2012-10-11 02:55:00
10:15 PM,44.8,35.8,71,30.17,10.0,Calm,Calm,-,N/A,,Clear,0,2012-10-11 03:15:00
10:35 PM,45.1,36.1,71,30.17,3.0,Calm,Calm,-,N/A,,Haze,0,2012-10-11 03:35:00
10:55 PM,45.7,36.3,70,30.17,7.0,Calm,Calm,-,N/A,,Clear,0,2012-10-11 03:55:00
11:15 PM,46.4,36.0,67,30.17,3.0,SE,3.5,-,N/A,,Haze,140,2012-10-11 04:15:00
11:35 PM,46.4,35.6,66,30.16,2.5,SSE,4.6,-,N/A,,Haze,150,2012-10-11 04:35:00
11:55 PM,46.0,35.8,67,30.16,3.0,Calm,Calm,-,N/A,,Haze,0,2012-10-11 04:55:00